[[{"header":{"parameterUnit":"m.s-1","parameterCategory":1,"la1":30.2991,"la2":30.254,"lo1":-89.0895,"lo2":-89.0444,"dy":0.0017,"dx":0.0017,"nx":28,"ny":28,"refTime":"2025-07-31T03:00:00:Z","depth":0,"parameterNumber":2,"parameterNumberName":"U-component_of_WINDS"},"data":[0,0,0,0,0,0,0,0,0,0,0,0,0,0,0,0,0,0,0,0,0,0,0,0,0,0,0,0,0,0,0,0,0,0,0,0,0,0,0,0,0,0,0,0,0,0,0,0,0,0,0,0,0,0,0,0,0,0,1.2146,1.2146,0,1.216,1.2161,1.2161,1.2169,1.2169,1.2169,1.2169,1.2184,1.2184,1.2185,0,0,0,0,0,0,0,0,0,0,0,0,0,1.2125,1.2125,1.2146,1.2146,1.2146,1.216,1.2161,1.2161,1.2169,1.2169,1.2169,1.2169,1.2184,1.2184,1.2185,0,0,0,0,0,0,0,0,0,0,0,0,0,1.2136,1.2126,1.2146,1.2152,1.2152,1.216,1.2161,1.2161,1.2169,1.2169,1.2169,1.2169,1.2183,1.2184,1.2185,1.2188,0,0,1.2186,1.2187,0,0,0,0,0,0,0,0,1.2136,1.2137,1.2151,1.2151,1.2152,1.2163,1.2159,1.217,1.2169,1.2162,1.2169,1.2169,1.2177,1.2178,1.2181,1.2188,1.2189,1.2186,1.2187,1.2187,1.2187,0,0,0,0,0,0,0,1.2135,1.2136,1.2151,1.2151,1.2152,1.2154,1.2155,1.2161,1.2169,1.2163,1.2164,1.2165,1.2177,1.218,1.2181,1.2189,1.2186,1.2187,1.2187,1.2188,1.2202,1.2202,0,0,0,0,0,0,1.2133,1.2136,1.2151,1.2152,1.2144,1.2154,1.2156,1.2159,1.2169,1.2171,1.2165,1.2165,1.2179,1.218,1.2182,1.2186,1.2187,1.2188,1.2188,1.2201,1.2202,1.2202,0,0,0,0,0,0,1.2133,1.2134,1.215,1.2144,1.2146,1.2155,1.2158,1.2159,1.2162,1.2171,1.2172,1.2166,1.2179,1.2181,1.2186,1.2187,1.2188,1.2188,1.2201,1.2201,1.2202,1.2195,0,0,0,0,0,0,1.2132,1.2134,1.2135,1.2144,1.2147,1.2155,1.2158,1.216,1.2163,1.2164,1.2173,1.2174,1.2179,1.2185,1.2187,1.2188,1.2189,1.2201,1.2201,1.2202,1.2196,1.2195,1.2195,0,0,0,0,0,1.2131,1.2133,1.2135,1.2137,1.2148,1.2155,1.2156,1.2162,1.2163,1.2165,1.217,1.2174,1.2187,1.2186,1.2188,1.2189,1.2201,1.2201,1.2202,1.2196,1.2195,1.2195,0,0,0,0,0,0,1.2123,1.2134,1.2137,1.2141,1.2147,1.2156,1.2158,1.2161,1.2167,1.2167,1.2174,1.2176,1.2181,1.2186,1.2185,1.2193,1.2195,1.2195,1.219,1.2189,1.2189,1.2188,1.2189,0,0,0,0,0,1.2122,1.2127,1.2136,1.2139,1.2141,1.2149,1.2152,1.2156,1.2163,1.2165,1.2171,1.2177,1.2183,1.2186,1.2192,1.2197,1.2199,1.2198,1.2198,1.2198,1.2198,1.2201,1.2201,1.2202,1.2202,1.2202,0,0,1.212,1.2126,1.2128,1.2137,1.2142,1.2147,1.2151,1.2156,1.2159,1.2166,1.2172,1.2176,1.2184,1.2189,1.2192,1.2193,1.2198,1.2198,1.2197,1.2198,1.2201,1.2201,1.2201,1.2202,1.2202,1.2202,0,0,1.2118,1.2123,1.2126,1.2131,1.2139,1.2144,1.2145,1.2154,1.2157,1.2163,1.2168,1.2173,1.2182,1.2188,1.2191,1.2193,1.2196,1.2194,1.2192,1.2196,1.2195,1.2195,1.2196,1.2196,1.2194,1.2194,1.2194,0,1.2113,1.212,1.2127,1.2132,1.2136,1.2142,1.2146,1.2151,1.216,1.2163,1.2164,1.2176,1.2182,1.2189,1.2189,1.2192,1.2193,1.2193,1.2195,1.2195,1.2195,1.2196,1.2196,1.2194,1.2194,1.2194,1.2194,0,1.2115,1.212,1.2122,1.2131,1.2135,1.2139,1.2147,1.2151,1.2155,1.216,1.2166,1.2173,1.2181,1.2183,1.2187,1.2191,1.2191,1.2194,1.2195,1.2195,1.2195,1.2196,1.2194,1.2194,1.2194,1.2194,0,0,1.2108,1.2121,1.2121,1.2126,1.2135,1.2139,1.2144,1.2152,1.2155,1.2161,1.2166,1.2174,1.2176,1.2181,1.2186,1.2189,1.219,1.2191,1.2191,1.219,1.2195,1.2193,1.2193,1.2192,1.2192,1.2192,1.2194,0,1.2107,1.2115,1.2122,1.2128,1.2133,1.214,1.2144,1.2151,1.2156,1.2162,1.2168,1.2173,1.2176,1.2179,1.2182,1.2189,1.219,1.2189,1.2197,1.2197,1.2194,1.2193,1.2191,1.2192,1.2194,1.2195,1.2195,0,1.2107,1.2113,1.212,1.213,1.2132,1.2135,1.2143,1.2148,1.2156,1.216,1.2165,1.217,1.2176,1.2178,1.2187,1.2185,1.2189,1.2193,1.2193,1.2194,1.2195,1.2194,1.2193,1.2193,1.2195,1.2195,1.2195,0,1.2101,1.2111,1.2117,1.212,1.2132,1.2134,1.2139,1.2147,1.2151,1.2158,1.2161,1.2169,1.2173,1.2179,1.2186,1.2187,1.2194,1.2196,1.2197,1.2197,1.2198,1.2198,1.2197,1.2201,1.2201,1.2201,1.2201,0,1.2099,1.2103,1.2114,1.2117,1.2122,1.213,1.2135,1.214,1.2148,1.2153,1.2159,1.2164,1.2173,1.2179,1.2185,1.2191,1.2193,1.2196,1.2198,1.2196,1.2195,1.2198,1.2198,1.2201,1.2201,1.2201,1.2201,0,1.2092,1.21,1.2107,1.2117,1.212,1.2123,1.2133,1.2136,1.2143,1.2149,1.2151,1.216,1.2168,1.2176,1.2186,1.219,1.2196,1.2198,1.2193,1.2194,1.2195,1.2194,1.2196,1.2196,1.2199,1.2199,1.2199,0,1.2091,1.2094,1.2105,1.2109,1.2114,1.212,1.2124,1.2133,1.2137,1.2147,1.215,1.2158,1.2164,1.2176,1.2184,1.2192,1.2194,1.2194,1.2195,1.2193,1.2194,1.2194,1.2195,1.2194,1.2194,1.2193,1.2193,0,1.2087,1.2091,1.2097,1.2105,1.211,1.2117,1.2124,1.2127,1.2136,1.2141,1.2149,1.2154,1.2165,1.2173,1.2182,1.2187,1.2192,1.2193,1.2194,1.2191,1.2189,1.219,1.2192,1.2193,1.2193,1.2193,1.2193,1.2193,1.2083,1.2086,1.2095,1.2102,1.2108,1.2114,1.2119,1.2126,1.2132,1.2141,1.2146,1.2154,1.2163,1.2175,1.2181,1.2187,1.2189,1.219,1.219,1.219,1.219,1.2188,1.2189,1.2189,1.2189,1.2189,1.2189,0,1.2079,1.2085,1.2092,1.2101,1.2107,1.2112,1.212,1.2124,1.2131,1.2139,1.2145,1.2155,1.2162,1.2172,1.218,1.2184,1.2186,1.2186,1.2185,1.2187,1.2188,1.2186,1.2184,1.2184,1.2184,1.2184,1.2184,1.2184,1.2078,1.2084,1.2089,1.2099,1.2105,1.2113,1.2117,1.2123,1.213,1.214,1.2146,1.2152,1.2161,1.217,1.2178,1.2181,1.2183,1.2182,1.2185,1.2186,1.2187,1.2187,1.2186,1.2183,1.2183,1.2184,1.2184,1.2184]},{"header":{"parameterUnit":"m.s-1","parameterCategory":1,"la1":30.2991,"la2":30.254,"lo1":-89.0895,"lo2":-89.0444,"dy":0.0017,"dx":0.0017,"nx":28,"ny":28,"refTime":"2025-07-31T03:00:00:Z","depth":0,"parameterNumber":3,"parameterNumberName":"V-component_of_WINDS"},"data":[0,0,0,0,0,0,0,0,0,0,0,0,0,0,0,0,0,0,0,0,0,0,0,0,0,0,0,0,0,0,0,0,0,0,0,0,0,0,0,0,0,0,0,0,0,0,0,0,0,0,0,0,0,0,0,0,0,0,-0.1866,-0.1867,0,-0.1922,-0.1923,-0.1923,-0.1919,-0.1918,-0.1917,-0.1917,-0.1976,-0.1978,-0.198,0,0,0,0,0,0,0,0,0,0,0,0,0,-0.1758,-0.176,-0.1866,-0.1867,-0.1867,-0.1922,-0.1923,-0.1924,-0.1919,-0.1918,-0.1917,-0.1916,-0.1975,-0.1978,-0.1981,0,0,0,0,0,0,0,0,0,0,0,0,0,-0.1809,-0.1761,-0.1866,-0.1872,-0.1873,-0.1922,-0.1923,-0.1924,-0.192,-0.1918,-0.1917,-0.1916,-0.1974,-0.1977,-0.1981,-0.2028,0,0,-0.1992,-0.1993,0,0,0,0,0,0,0,0,-0.1806,-0.1813,-0.187,-0.1872,-0.1873,-0.1912,-0.1906,-0.1959,-0.192,-0.1902,-0.1917,-0.1915,-0.1956,-0.1961,-0.1974,-0.2031,-0.2033,-0.1992,-0.1994,-0.1996,-0.1997,0,0,0,0,0,0,0,-0.1802,-0.181,-0.1888,-0.1871,-0.1873,-0.1873,-0.1878,-0.1916,-0.1935,-0.1903,-0.1903,-0.191,-0.1956,-0.1971,-0.1975,-0.2034,-0.1992,-0.1995,-0.1997,-0.1999,-0.2134,-0.2136,0,0,0,0,0,0,-0.1797,-0.1807,-0.1886,-0.189,-0.1835,-0.1876,-0.1882,-0.1901,-0.1935,-0.1939,-0.1911,-0.1909,-0.1965,-0.1971,-0.1977,-0.2036,-0.1996,-0.1999,-0.2001,-0.2133,-0.2135,-0.2136,0,0,0,0,0,0,-0.1795,-0.1804,-0.1884,-0.1849,-0.1859,-0.1879,-0.19,-0.1903,-0.1917,-0.194,-0.1944,-0.1922,-0.1964,-0.1972,-0.2016,-0.2038,-0.2001,-0.2004,-0.2131,-0.2134,-0.2136,-0.2153,0,0,0,0,0,0,-0.1792,-0.1803,-0.1821,-0.1849,-0.1861,-0.1921,-0.1901,-0.1905,-0.1923,-0.1922,-0.1952,-0.1956,-0.1964,-0.2011,-0.2019,-0.2042,-0.2007,-0.2129,-0.2132,-0.2135,-0.2151,-0.2156,-0.216,0,0,0,0,0,-0.1788,-0.1823,-0.1822,-0.1831,-0.1883,-0.1922,-0.1929,-0.1938,-0.1925,-0.1943,-0.1958,-0.1955,-0.2034,-0.2015,-0.2025,-0.2049,-0.2128,-0.2131,-0.2135,-0.2149,-0.2155,-0.216,0,0,0,0,0,0,-0.1798,-0.1827,-0.1826,-0.1871,-0.1894,-0.1921,-0.1945,-0.1943,-0.1971,-0.1969,-0.1979,-0.1985,-0.2029,-0.2044,-0.2022,-0.2098,-0.208,-0.2085,-0.2087,-0.2093,-0.2098,-0.2094,-0.2009,0,0,0,0,0,-0.1805,-0.1834,-0.1858,-0.1896,-0.1908,-0.1924,-0.1942,-0.1947,-0.1971,-0.1981,-0.1999,-0.2024,-0.2054,-0.2074,-0.2104,-0.2153,-0.216,-0.2175,-0.2179,-0.2183,-0.2188,-0.2217,-0.2224,-0.2147,-0.2147,-0.2147,0,0,-0.1821,-0.184,-0.1858,-0.1899,-0.1917,-0.1948,-0.1933,-0.1965,-0.1989,-0.1986,-0.2028,-0.2043,-0.2071,-0.2118,-0.2139,-0.2131,-0.2211,-0.2187,-0.219,-0.2193,-0.2221,-0.2228,-0.2235,-0.215,-0.2149,-0.2149,0,0,-0.1865,-0.1882,-0.1917,-0.1936,-0.1964,-0.1975,-0.1983,-0.2011,-0.202,-0.2063,-0.2062,-0.209,-0.2142,-0.2162,-0.218,-0.2234,-0.2232,-0.2243,-0.2268,-0.2296,-0.2302,-0.2307,-0.2328,-0.2335,-0.2247,-0.2248,-0.2248,0,-0.1882,-0.1927,-0.1935,-0.1968,-0.1987,-0.1986,-0.2021,-0.2039,-0.2076,-0.2089,-0.2079,-0.2146,-0.2164,-0.2217,-0.223,-0.2244,-0.2255,-0.224,-0.23,-0.2306,-0.2311,-0.2331,-0.2338,-0.2249,-0.2249,-0.2249,-0.2248,0,-0.1946,-0.1978,-0.2003,-0.2038,-0.2059,-0.2094,-0.2108,-0.2128,-0.2132,-0.2144,-0.2188,-0.2211,-0.2245,-0.2258,-0.2261,-0.2312,-0.2306,-0.2298,-0.228,-0.2319,-0.2338,-0.2346,-0.2251,-0.225,-0.225,-0.2249,0,0,-0.1999,-0.2038,-0.2047,-0.2064,-0.2095,-0.2121,-0.2155,-0.2189,-0.2208,-0.2233,-0.2264,-0.2308,-0.2302,-0.2321,-0.2327,-0.2351,-0.2395,-0.2341,-0.2341,-0.2351,-0.2453,-0.246,-0.2469,-0.2393,-0.2395,-0.2396,-0.2452,0,-0.2047,-0.2109,-0.2117,-0.2172,-0.2203,-0.2202,-0.2233,-0.2256,-0.2269,-0.2297,-0.2312,-0.2344,-0.2332,-0.2344,-0.2368,-0.2384,-0.2415,-0.238,-0.2423,-0.2425,-0.2417,-0.2478,-0.2485,-0.2537,-0.2459,-0.246,-0.2461,0,-0.2112,-0.214,-0.2198,-0.2226,-0.2239,-0.2267,-0.2299,-0.2326,-0.2353,-0.236,-0.2383,-0.2386,-0.2424,-0.2403,-0.2456,-0.2432,-0.245,-0.2461,-0.2463,-0.2469,-0.2446,-0.2487,-0.2553,-0.2562,-0.2472,-0.2472,-0.2471,0,-0.2147,-0.2198,-0.224,-0.2254,-0.2288,-0.2307,-0.2322,-0.2348,-0.2368,-0.2397,-0.241,-0.2443,-0.2461,-0.2487,-0.2499,-0.2483,-0.2552,-0.2532,-0.256,-0.256,-0.2575,-0.2574,-0.2647,-0.2585,-0.2585,-0.2585,-0.2585,0,-0.2201,-0.2237,-0.2256,-0.2281,-0.2322,-0.2332,-0.2372,-0.2387,-0.241,-0.2439,-0.2441,-0.2469,-0.2483,-0.2513,-0.2523,-0.2566,-0.2574,-0.2582,-0.2584,-0.2583,-0.2582,-0.2595,-0.2593,-0.2587,-0.2586,-0.2586,-0.2586,0,-0.2246,-0.226,-0.2306,-0.2334,-0.2342,-0.2371,-0.2396,-0.2422,-0.2435,-0.2472,-0.2482,-0.2502,-0.2538,-0.2552,-0.2596,-0.2603,-0.2653,-0.2652,-0.2644,-0.2645,-0.2673,-0.2671,-0.2758,-0.2771,-0.2699,-0.2699,-0.27,0,-0.228,-0.2308,-0.234,-0.236,-0.2376,-0.2407,-0.2428,-0.2439,-0.2461,-0.2495,-0.2517,-0.2552,-0.2582,-0.2639,-0.2659,-0.2693,-0.2693,-0.2721,-0.2698,-0.2696,-0.2696,-0.2694,-0.2698,-0.2726,-0.2727,-0.2727,-0.2728,0,-0.234,-0.2346,-0.2376,-0.2408,-0.2433,-0.2459,-0.2485,-0.2501,-0.2517,-0.2541,-0.2578,-0.2601,-0.2646,-0.2682,-0.2717,-0.2734,-0.2734,-0.2735,-0.2744,-0.2743,-0.2737,-0.2742,-0.2657,-0.2733,-0.2733,-0.2732,-0.2732,-0.2732,-0.2382,-0.2407,-0.2434,-0.2468,-0.2488,-0.2512,-0.2538,-0.2555,-0.2585,-0.2623,-0.2628,-0.2667,-0.2695,-0.2743,-0.2761,-0.2793,-0.2786,-0.2798,-0.2801,-0.2804,-0.2807,-0.2731,-0.2799,-0.2799,-0.2799,-0.2799,-0.2799,0,-0.2444,-0.2461,-0.2492,-0.2528,-0.2554,-0.2551,-0.258,-0.2603,-0.2638,-0.2663,-0.2692,-0.2735,-0.2771,-0.2793,-0.2829,-0.285,-0.2852,-0.286,-0.2859,-0.2863,-0.281,-0.28,-0.2858,-0.2858,-0.2858,-0.2858,-0.2858,-0.2858,-0.2479,-0.2522,-0.2531,-0.2585,-0.2602,-0.2641,-0.2658,-0.2681,-0.2701,-0.2749,-0.2778,-0.2793,-0.2817,-0.2855,-0.2888,-0.2894,-0.2908,-0.2917,-0.2922,-0.2873,-0.2866,-0.2861,-0.2851,-0.2919,-0.2919,-0.2972,-0.2973,-0.2973]}]]